Location: Bessat
(45.8735°N, 1.9924°E)
Time: 08:24:46
(UTC+00:00)

Iridium 4 Rocket - Pass Details

Date: 11 May 2021
Orbit: 583 x 906 km, 86.9° (Epoch: 15 June)

Event Time Altitude Azimuth Distance (km) Brightness Sun altitude
Exits shadow 21:30:59 25° 184° (S) 1,715 4.9 -18.8°
Maximum altitude 21:34:34 86° 272° (W) 905 3.8 -19.2°
Drops below altitude 10° 21:40:32 10° 2° (N) 2,599 7.0 -19.8°
Sets 21:43:01 0° 3° (N) 3,540 7.8 -20.0°
